INTELSAT 30 (IS-30) (40271 NORAD) Tracking and Keplerian Element Data

This shows tracking and keplerian element data for the satellite.

Feedback or suggestion? Click here.




ElementValue
Catalog40271
NameINTELSAT 30 (IS-30)
Epoch Orbit1483
Epoch Day315.84139464
Epoch Year2018
RAAN291.3031
Inclination0.0178
Eccentricity0.0002221
Argument of Perigee177.774
Mean Anonmoly149.7203
Mean Motion1.00272888
Decay Rate-1.54E-06
L11 40271U 14062A 18315.84139464 -.00000154 00000-0 00000-0 0 9995
L22 40271 0.0178 291.3031 0002221 177.7740 149.7203 1.00272888 14839

Live tracking and technical data element details for INTELSAT 30 (IS-30) (NORAD 40271). INTELSAT 30 (IS-30) can be tracked NOW for your location showing map with azimuth and elevation plus other details from your city location.

Track the satellite on the map from your city or location and see movement details for azimuth, elevation, latitude, longitude, range, height, and movement on the map or in text.







IsCatalogInMostPopularTable: catalog: 40271, numindb: 135
Update: records affected: 1



GetName: 40271 INTELSAT 30 (IS-30)

Hit Count: updated at: Mon, 12 Nov 2018 17:32:05 GMT